sat.trackr.live / text

‹ back to catalog

ONEWEB-0269

NORAD 48987 · 2021-060W

PAYLOAD ACTIVE UNKNOWN

§ Identity

Operator
Country
UK
Launch date
2021-07-01
Launch site
VOSTO
Launch vehicle
Mass (kg)
RCS (m²)

Purposes: comms

External: N2YO · Heavens-Above · Gunter

§ Orbital elements

Epoch: 2026-05-25T05:09:36.781056Z

Period
109.37 min
Inclination
87.9093°
Eccentricity
0.0002223
Mean motion
13.16593939 rev/d
Perigee alt
1,196.1 km
Apogee alt
1,199.4 km
Semi-major
7,575.9 km
B*
-1.8375e-4
RAAN
233.3469°
Arg perigee
100.6456°
Mean anomaly
259.4925°
Rev number
23,660

§ Raw data

ONEWEB-02691 48987U 21060W   26145.21500904 -.00000057  00000+0 -18375-3 0  99942 48987  87.9093 233.3469 0002223 100.6456 259.4925 13.16593939236607

JSON: /api/v1/satellites/48987 · /tle

For live sub-satellite position, see the globe view (requires WebGL).

§ Visibility from observer

Set your observer location to see the next 7 days of passes ≥ 10°. The values pass through the URL so the page stays shareable.

No JS? Fill the form by hand. The geolocation button needs JavaScript.